Powrót do katalogu

ATLAS 5 CENTAUR DEB

LostHEO
NORAD 47251·DEBRIS·🇺🇸 United States

Wystrzelony Oct 17, 2018 z Cape Canaveral Space Force Station

Loading…

Następne Przeloty (najbliższe 24 godziny)

TLE

NieaktualneSource: Space-Track

Epoka: Feb 6, 2021, 11:36 UTC

1 47251U 18079EK  21037.48375885 -.00000067  00000-0  00000+0 0  9998
2 47251  11.4148 203.5630 4591054   6.7066 357.6879  1.94578946  1348

Śledź ATLAS 5 CENTAUR DEB w czasie rzeczywistym z AllMySat

Download on the App Store